Humidity-temperature Sensor

Selected Measurement Type: Relative Humidity

 
Relative Humidity [%]     6 entries per hour
Showing data from 9/13/2017 (00:00:00 Z) to 9/10/2017 (00:01:00 Z)
Previous Next [ Day | 3-Days | 7-Days ]
First Last
Prev [ Day | 3-Days | 7-Days ] Next
First Last

Start Time:     :
End Time:     :     
Time (in GMT) :00 :50 :40 :30 :20 :10
Previous Next [ Day | 3-Days | 7-Days ]
First Last
Prev [ Day | 3-Days | 7-Days ] Next
First Last


123 => good data
MM => data is determined as missing
-- => data not received/configured
Back to Top Back to Top
9/13/2017 00:00 to 23:10 83.34 82.83 84.83 82.92 78.58 76.47
9/12/2017 23:00 to 22:10 79.42 79.52 79.55 78.68 77.33 79.92
9/12/2017 22:00 to 21:10 79.86 77.19 78.30 78.24 78.32 76.74
9/12/2017 21:00 to 20:10 78.79 78.20 78.93 78.18 76.74 77.14
9/12/2017 20:00 to 19:10 79.04 81.04 80.58 79.92 78.85 83.25
9/12/2017 19:00 to 18:10 81.50 78.20 77.88 78.11 77.75 77.99
9/12/2017 18:00 to 17:10 78.05 78.72 79.44 79.12 79.59 79.21
9/12/2017 17:00 to 16:10 78.81 79.27 79.08 79.40 80.11 79.82
9/12/2017 16:00 to 15:10 80.13 79.73 78.70 78.91 78.68 78.53
9/12/2017 15:00 to 14:10 78.24 79.44 79.86 79.57 79.90 81.57
9/12/2017 14:00 to 13:10 85.65 88.14 88.52 87.02 80.91 80.26
9/12/2017 13:00 to 12:10 81.02 80.79 81.00 81.50 85.32 85.80
9/12/2017 12:00 to 11:10 84.73 84.41 79.86 79.25 80.39 80.94
9/12/2017 11:00 to 10:10 80.45 80.75 79.78 82.33 80.62 82.79
9/12/2017 10:00 to 9:10 80.07 78.03 77.08 80.39 80.37 86.07
9/12/2017 09:00 to 8:10 80.85 77.97 77.86 78.60 78.43 77.92
9/12/2017 08:00 to 7:10 77.86 78.53 78.77 78.87 77.19 76.70
9/12/2017 07:00 to 6:10 78.30 77.84 78.30 77.50 78.49 77.29
9/12/2017 06:00 to 5:10 76.87 76.20 76.98 78.51 79.73 81.90
9/12/2017 05:00 to 4:10 86.24 86.18 86.94 87.11 85.48 84.92
9/12/2017 04:00 to 3:10 83.48 79.04 79.52 75.08 72.47 70.24
9/12/2017 03:00 to 2:10 68.42 69.41 73.52 76.22 75.42 76.39
9/12/2017 02:00 to 1:10 79.19 81.10 81.63 75.08 73.08 85.74
9/12/2017 01:00 to 0:10 86.54 88.03 85.02 78.79 79.10 77.50
9/12/2017 00:00 to 23:10 77.17 79.04 79.86 80.47 77.12 75.94
9/11/2017 23:00 to 22:10 74.30 74.79 76.39 75.65 77.33 76.91
9/11/2017 22:00 to 21:10 75.92 76.24 75.46 75.61 75.12 75.71
9/11/2017 21:00 to 20:10 74.43 73.61 73.06 74.74 72.74 73.50
9/11/2017 20:00 to 19:10 74.30 74.13 74.32 73.71 74.60 74.91
9/11/2017 19:00 to 18:10 73.98 72.62 73.86 72.83 75.42 76.24
9/11/2017 18:00 to 17:10 78.22 78.32 78.51 78.91 79.95 80.64
9/11/2017 17:00 to 16:10 79.42 79.40 80.45 81.21 78.47 78.60
9/11/2017 16:00 to 15:10 80.45 81.67 77.27 79.90 79.95 79.86
9/11/2017 15:00 to 14:10 77.35 76.11 75.80 74.89 76.70 76.87
9/11/2017 14:00 to 13:10 74.62 75.19 78.01 81.27 84.94 84.90
9/11/2017 13:00 to 12:10 85.95 75.40 73.54 76.41 76.72 75.90
9/11/2017 12:00 to 11:10 78.03 77.97 77.75 78.96 77.92 77.97
9/11/2017 11:00 to 10:10 77.67 81.78 81.23 79.99 79.90 80.51
9/11/2017 10:00 to 9:10 80.28 82.87 81.46 87.02 83.02 80.20
9/11/2017 09:00 to 8:10 80.41 80.58 79.31 80.01 79.88 80.26
9/11/2017 08:00 to 7:10 80.20 79.86 80.13 80.05 80.98 79.90
9/11/2017 07:00 to 6:10 81.42 81.36 81.44 82.56 82.24 83.02
9/11/2017 06:00 to 5:10 -- -- -- -- -- --
9/11/2017 05:00 to 4:10 85.80 89.72 89.76 83.38 81.21 81.10
9/11/2017 04:00 to 3:10 79.90 79.50 79.67 80.24 79.86 80.72
9/11/2017 03:00 to 2:10 80.64 81.23 81.84 80.39 82.49 82.83
9/11/2017 02:00 to 1:10 81.10 79.04 82.83 81.48 78.87 78.24
9/11/2017 01:00 to 0:10 77.29 83.78 72.55 71.31 72.93 73.46
9/11/2017 00:00 to 23:10 74.74 75.52 77.04 77.12 75.69 77.80
9/10/2017 23:00 to 22:10 79.69 80.16 80.24 78.13 72.70 72.89
9/10/2017 22:00 to 21:10 72.22 72.89 73.46 72.49 72.43 70.43
9/10/2017 21:00 to 20:10 71.06 70.93 69.25 70.97 70.93 72.01
9/10/2017 20:00 to 19:10 73.63 74.60 76.51 76.74 76.07 75.48
9/10/2017 19:00 to 18:10 79.73 78.91 81.31 81.06 81.84 81.67
9/10/2017 18:00 to 17:10 80.58 80.94 81.88 82.24 85.11 86.69
9/10/2017 17:00 to 16:10 86.22 86.10 85.86 83.53 87.51 86.77
9/10/2017 16:00 to 15:10 85.48 84.01 82.60 79.15 79.61 78.79
9/10/2017 15:00 to 14:10 78.37 77.04 74.68 81.08 82.98 82.05
9/10/2017 14:00 to 13:10 80.89 80.20 79.02 80.13 82.75 85.21
9/10/2017 13:00 to 12:10 85.53 85.15 85.82 84.41 85.65 85.42
9/10/2017 12:00 to 11:10 85.93 87.19 88.29 89.80 91.07 90.83
9/10/2017 11:00 to 10:10 90.33 88.71 88.75 89.51 88.43 86.18
9/10/2017 10:00 to 9:10 87.53 81.04 82.77 84.35 84.49 85.06
9/10/2017 09:00 to 8:10 85.57 87.00 85.70 85.11 83.15 78.64
9/10/2017 08:00 to 7:10 78.30 77.90 77.82 77.42 75.44 75.00
9/10/2017 07:00 to 6:10 76.11 74.76 79.65 78.77 82.85 80.62
9/10/2017 06:00 to 5:10 84.05 82.77 83.50 83.21 81.46 82.92
9/10/2017 05:00 to 4:10 84.43 84.98 84.07 83.82 82.87 83.72
9/10/2017 04:00 to 3:10 85.51 86.31 89.23 90.75 91.97 90.60
9/10/2017 03:00 to 2:10 -- -- -- -- -- --
9/10/2017 02:00 to 1:10 87.15 86.37 85.95 85.36 86.03 86.73
9/10/2017 01:00 to 0:10 87.13 87.19 88.05 88.96 88.41 89.00